Le nostre stazioni meteo in Italia

Pubblicità
Il mio iltempo24.it
Lampedusa, Italia (16490): Temperatura & dewpoint: 03.04.2020 18:00:00 - 09.04.2020 18:00:00 (CEST)Lampedusa, Italia (16490): velocità del vento: 03.04.2020 18:00:00 - 09.04.2020 18:00:00 (CEST)Lampedusa, Italia (16490): direzione del vento: 03.04.2020 18:00:00 - 09.04.2020 18:00:00 (CEST)Lampedusa, Italia (16490): reduced air pressure: 03.04.2020 18:00:00 - 09.04.2020 18:00:00 (CEST)Lampedusa, Italia (16490): visibility: 03.04.2020 18:00:00 - 09.04.2020 18:00:00 (CEST)Lampedusa, Italia (16490): precipitazioni: 03.04.2020 18:00:00 - 09.04.2020 18:00:00 (CEST)
Data & Tempo tt [°C] td [°C] ff [km/h] ff [kn] dd ppp [hPa] vv [km] rr [mm]
09.04.2020 18:00:00 18,0 10,0 13 7 SO - 10 -
09.04.2020 17:00:00 17,8 10,1 13 7 SO 1022,1 10 0,0
09.04.2020 16:00:00 18,0 11,0 11 6 SO - 10 -
09.04.2020 15:00:00 18,0 12,0 15 8 SO - 10 -
09.04.2020 14:00:00 17,7 11,9 8 4 S 1023,0 10 -
09.04.2020 13:00:00 17,0 12,0 5 3 - - 10 -
09.04.2020 12:00:00 17,0 12,0 5 3 ENE - 10 -
09.04.2020 11:00:00 16,8 12,3 4 2 N 1023,8 10 0,0
09.04.2020 10:00:00 16,0 12,0 4 2 - - 10 -
09.04.2020 09:00:00 16,0 12,0 4 2 - - 10 -
09.04.2020 08:00:00 14,7 11,6 2 1 ONO 1022,9 10 -
09.04.2020 07:00:00 13,0 10,0 4 2 O - 10 -
09.04.2020 06:00:00 13,0 10,0 4 2 O - 10 -
09.04.2020 05:00:00 13,4 10,1 4 2 ONO 1022,3 10 0,0
09.04.2020 04:00:00 13,0 10,0 5 3 O - 10 -
09.04.2020 03:00:00 14,0 10,0 4 2 NO - 10 -
09.04.2020 02:00:00 14,0 10,0 2 1 OSO 1023,4 10 -
09.04.2020 01:00:00 14,0 10,0 4 2 SSO - 10 -
09.04.2020 00:00:00 14,0 10,0 2 1 SO - 10 -
08.04.2020 23:00:00 14,6 9,7 4 2 SSO 1024,2 10 0,0
08.04.2020 22:00:00 15,0 10,0 4 2 - - 10 -
08.04.2020 21:00:00 15,0 11,0 5 3 SE - 10 -
08.04.2020 20:00:00 15,5 10,9 5 3 ESE 1023,1 10 -
08.04.2020 19:00:00 16,0 11,0 5 3 ESE - 10 -
08.04.2020 18:00:00 17,0 10,0 8 4 ENE - 10 -
08.04.2020 17:00:00 16,7 10,3 8 4 ENE 1023,0 10 0,0
08.04.2020 16:00:00 17,0 10,0 9 5 E - 10 -
08.04.2020 15:00:00 17,0 11,0 9 5 E - 10 -
08.04.2020 14:00:00 17,1 11,0 9 5 E 1024,2 10 -
08.04.2020 13:00:00 16,0 11,0 8 4 ENE - 10 -
08.04.2020 12:00:00 17,0 11,0 9 5 NNE - 10 -
08.04.2020 11:00:00 16,6 10,8 8 4 NE 1025,3 10 0,0
08.04.2020 10:00:00 16,0 11,0 5 3 NNE - 10 -
08.04.2020 09:00:00 16,0 11,0 4 2 NNE - 10 -
08.04.2020 08:00:00 15,0 10,7 0 0 NNO 1024,6 - -
08.04.2020 07:00:00 14,0 10,0 2 1 ONO - 10 -
08.04.2020 06:00:00 15,0 10,0 2 1 N - 10 -
08.04.2020 05:00:00 14,7 10,1 0 0 N 1024,3 10 0,0
08.04.2020 04:00:00 14,0 10,0 2 1 SO - 10 -
08.04.2020 03:00:00 14,0 10,0 4 2 SSO - 10 -
08.04.2020 02:00:00 14,9 9,9 4 2 S 1025,2 10 -
08.04.2020 01:00:00 15,0 10,0 8 4 SSE - 10 -
08.04.2020 00:00:00 15,0 10,0 5 3 SE - 10 -
07.04.2020 23:00:00 15,3 9,7 5 3 SSE 1025,6 10 0,0
07.04.2020 22:00:00 16,0 10,0 5 3 SSE - 10 -
07.04.2020 21:00:00 16,0 9,0 4 2 SSE - 10 -
07.04.2020 20:00:00 15,9 8,9 4 2 SE 1024,6 10 -
07.04.2020 19:00:00 17,0 10,0 5 3 ESE - 10 -
07.04.2020 18:00:00 17,0 11,0 4 2 - - 10 -
07.04.2020 17:00:00 16,5 10,6 2 1 N 1024,5 10 0,0
07.04.2020 16:00:00 18,0 11,0 8 4 SSO - 10 -
07.04.2020 15:00:00 18,0 11,0 9 5 SSO - 10 -
07.04.2020 14:00:00 17,8 12,0 5 3 S 1025,5 10 -
07.04.2020 13:00:00 16,0 11,0 5 3 SE - 10 -
07.04.2020 12:00:00 17,0 12,0 8 4 E - 10 -
07.04.2020 11:00:00 16,8 11,8 5 3 ESE 1025,6 10 0,0
07.04.2020 10:00:00 16,0 13,0 5 3 NE - 10 -
07.04.2020 09:00:00 15,0 13,0 4 2 - - 10 -
07.04.2020 08:00:00 14,3 12,3 4 2 ONO 1024,5 10 -
07.04.2020 07:00:00 14,0 12,0 2 1 S - 10 -
07.04.2020 06:00:00 15,0 12,0 8 4 ESE - 10 -
07.04.2020 05:00:00 14,7 12,4 9 5 E 1023,3 10 0,0
07.04.2020 04:00:00 14,0 12,0 8 4 N - 10 -
07.04.2020 03:00:00 14,0 11,0 8 4 N - 10 -
07.04.2020 02:00:00 14,6 11,7 9 5 N 1024,5 10 -
07.04.2020 01:00:00 15,0 12,0 11 6 NNE - 10 -
07.04.2020 00:00:00 15,0 12,0 15 8 NNE - 10 -
06.04.2020 23:00:00 15,1 12,4 18 10 NNE 1024,3 10 0,0
06.04.2020 22:00:00 15,0 12,0 22 12 NNE - 10 -
06.04.2020 21:00:00 15,0 12,0 21 11 N - 10 -
06.04.2020 20:00:00 15,3 12,1 16 9 N 1022,5 10 -
06.04.2020 19:00:00 16,0 12,0 21 11 N - 10 -
06.04.2020 18:00:00 16,0 12,0 21 11 N - 10 -
06.04.2020 17:00:00 16,8 11,4 21 11 NNO 1022,1 10 0,0
06.04.2020 16:00:00 17,0 11,0 22 12 NNO - 10 -
06.04.2020 15:00:00 17,0 12,0 18 10 NNO - 10 -
06.04.2020 14:00:00 17,0 11,3 18 10 NNO 1022,5 10 -
06.04.2020 13:00:00 17,0 11,0 22 12 NNO - 10 -
06.04.2020 12:00:00 16,0 12,0 22 12 NNO - 10 -
06.04.2020 11:00:00 16,3 11,3 18 10 NNO 1022,2 10 0,0
06.04.2020 10:00:00 16,0 11,0 18 10 NNO - 10 -
06.04.2020 09:00:00 15,0 10,0 21 11 NO - 10 -
06.04.2020 08:00:00 14,4 9,8 15 8 NO 1021,0 - -
06.04.2020 07:00:00 14,0 9,0 16 9 NO - 10 -
06.04.2020 06:00:00 14,0 10,0 16 9 NO - 10 -
06.04.2020 05:00:00 13,2 9,6 13 7 ONO 1019,5 10 0,0
06.04.2020 04:00:00 12,0 9,0 11 6 ONO - 10 -
06.04.2020 03:00:00 13,0 10,0 11 6 ONO - 10 -
06.04.2020 02:00:00 13,1 9,8 5 3 ONO 1019,7 10 -
06.04.2020 01:00:00 14,0 10,0 11 6 NO - 10 -
06.04.2020 00:00:00 14,0 11,0 9 5 NO - 10 -
05.04.2020 23:00:00 14,3 10,5 15 8 NNO 1019,8 10 0,0
05.04.2020 22:00:00 14,0 10,0 9 5 NO - 10 -
05.04.2020 21:00:00 15,0 10,0 13 7 NNO - 10 -
05.04.2020 20:00:00 14,8 9,9 13 7 NNO 1018,7 10 -
05.04.2020 19:00:00 16,0 10,0 18 10 NNO - 10 -
05.04.2020 18:00:00 16,0 11,0 21 11 NNO - 10 -
05.04.2020 17:00:00 16,4 10,9 21 11 NO 1018,3 10 0,0
05.04.2020 16:00:00 16,0 12,0 24 13 NO - 10 -
05.04.2020 15:00:00 17,0 12,0 24 13 ONO - 10 -
05.04.2020 14:00:00 17,1 11,3 22 12 NO 1018,6 10 -
05.04.2020 13:00:00 17,0 11,0 26 14 NO - 10 -
05.04.2020 12:00:00 16,0 11,0 24 13 NO - 10 -
05.04.2020 11:00:00 16,2 10,3 22 12 NO 1019,4 10 0,0
05.04.2020 10:00:00 16,0 10,0 24 13 NNO - 10 -
05.04.2020 09:00:00 15,0 10,0 21 11 NNO - 10 -
05.04.2020 08:00:00 14,6 9,4 21 11 NNO 1018,7 10 -
05.04.2020 07:00:00 14,0 9,0 26 14 NNO - 10 -
05.04.2020 06:00:00 14,0 8,0 22 12 NNO - 10 -
05.04.2020 05:00:00 14,2 8,7 22 12 NNO 1017,6 10 0,0
05.04.2020 04:00:00 14,0 9,0 29 16 NNO - 10 -
05.04.2020 03:00:00 14,0 8,0 26 14 NNO - 10 -
05.04.2020 02:00:00 14,2 8,0 26 14 NO 1018,0 10 -
05.04.2020 01:00:00 14,0 9,0 26 14 NO - 10 -
05.04.2020 00:00:00 14,0 8,0 28 15 NO - 10 -
04.04.2020 23:00:00 14,3 8,6 29 16 NNO 1018,2 10 0,0
04.04.2020 22:00:00 14,0 9,0 26 14 NO - 10 -
04.04.2020 21:00:00 15,0 10,0 29 16 NNO - 10 -
04.04.2020 20:00:00 14,7 9,6 28 15 NNO 1016,4 10 -
04.04.2020 19:00:00 15,0 10,0 29 16 NNO - 10 -
04.04.2020 18:00:00 16,0 10,0 31 17 NNO - 10 -
04.04.2020 17:00:00 16,0 10,4 31 17 NNO 1015,1 10 0,0
04.04.2020 16:00:00 16,0 10,0 35 19 NNO - 10 -
04.04.2020 15:00:00 17,0 10,0 34 18 NNO - 10 -
04.04.2020 14:00:00 16,4 10,0 29 16 NNO 1015,2 10 -
04.04.2020 13:00:00 16,0 10,0 35 19 NNO - 10 -
04.04.2020 12:00:00 16,0 11,0 34 18 NNO - 10 -
04.04.2020 11:00:00 15,7 10,3 37 20 NNO 1014,5 10 0,0
04.04.2020 10:00:00 15,0 10,0 41 22 NNO - 10 -
04.04.2020 09:00:00 15,0 10,0 41 22 NNO - 10 -
04.04.2020 08:00:00 14,7 10,1 37 20 N 1011,8 10 -
04.04.2020 07:00:00 15,0 11,0 39 21 NNO - 10 -
04.04.2020 06:00:00 14,0 11,0 35 19 NNO - 10 -
04.04.2020 05:00:00 14,0 9,9 34 18 NNO 1009,7 10 0,0
04.04.2020 04:00:00 14,0 10,0 31 17 NNO - 10 -
04.04.2020 03:00:00 14,0 10,0 31 17 NNO - 10 -
04.04.2020 02:00:00 13,2 11,2 29 16 N 1009,9 4,9 -
04.04.2020 01:00:00 14,0 12,0 26 14 NNO - 5 -
04.04.2020 00:00:00 14,0 11,0 18 10 N - 10 -
03.04.2020 23:00:00 14,2 10,6 16 9 NNO 1009,7 10 0,0
03.04.2020 22:00:00 14,0 11,0 22 12 N - 10 -
03.04.2020 21:00:00 14,0 11,0 18 10 N - 10 -
03.04.2020 20:00:00 14,6 10,6 11 6 N 1008,7 10 -
03.04.2020 19:00:00 15,0 11,0 21 11 N - 10 -
03.04.2020 18:00:00 14,0 11,0 24 13 NNE - 10 -

tt = Temperatura
td = dewpoint
ff = velocità del vento
dd = direzione del vento
ppp = reduced air pressure
vv = visibility
rr = precipitazioni

Stazioni seguenti

WeatherPro
AMSI
MeteoEarth